Вернуться в каталог

STARLINK-2161

АктивенСвязьVLEO
NORAD 47747·PAYLOAD·🇺🇸 United States

Запущен Mar 4, 2021 с Cape Canaveral Space Force Station

Loading…

Ближайшие Пролёты (ближайшие 24 часа)

TLE

СвежийSource: CelesTrak SupGP

Эпоха: Sep 14, 2026, 20:46 UTC

1 47747C 21017AB  26257.86576389  .00042270  00000+0  13592-2 0  2577
2 47747  53.1590  33.5158 0001078  90.3122 221.9005 15.31683771    14

Отслеживайте STARLINK-2161 в реальном времени с AllMySat

Download on the App Store